Météo par heure à Alkaladka

Ce jour, 13 Mai, Jeudi

Heure Température Précipitation Vent Pression Humidité
00:00 +8°C° 0 mm 3 m/s 753 mmHg 94%
01:00 +8°C° 0 mm 3 m/s 753 mmHg 94%
02:00 +8°C° 0 mm 3 m/s 753 mmHg 94%
03:00 +8°C° 0 mm 3 m/s 753 mmHg 94%
04:00 +8°C° 0 mm 3 m/s 753 mmHg 92%
05:00 +9°C° 0 mm 3 m/s 753 mmHg 90%
06:00 +9°C° 0 mm 3 m/s 752 mmHg 89%
07:00 +11°C° 0 mm 3 m/s 752 mmHg 81%
08:00 +13°C° 0 mm 3 m/s 752 mmHg 74%
09:00 +17°C° 0 mm 3 m/s 752 mmHg 66%
10:00 +18°C° 0 mm 3 m/s 751 mmHg 64%
11:00 +19°C° 0 mm 3 m/s 751 mmHg 62%
12:00 +20°C° 0 mm 3 m/s 751 mmHg 59%
13:00 +21°C° 0.1 mm 3 m/s 751 mmHg 58%
14:00 +22°C° 0.1 mm 3 m/s 751 mmHg 57%
15:00 +22°C° 0.1 mm 3 m/s 751 mmHg 55%
16:00 +22°C° 0 mm 3 m/s 751 mmHg 60%
17:00 +21°C° 0 mm 2 m/s 751 mmHg 64%
18:00 +21°C° 0 mm 2 m/s 750 mmHg 68%
19:00 +19°C° 0 mm 2 m/s 751 mmHg 71%
20:00 +17°C° 0 mm 2 m/s 751 mmHg 73%
21:00 +15°C° 0 mm 1 m/s 751 mmHg 75%
22:00 +15°C° 0 mm 1 m/s 751 mmHg 75%
23:00 +14°C° 0 mm 1 m/s 751 mmHg 74%

Demain, 14 Mai, Vendredi

Heure Température Précipitation Vent Pression Humidité
00:00 +14°C° 0 mm 1 m/s 751 mmHg 73%
01:00 +14°C° 0 mm 2 m/s 752 mmHg 74%
02:00 +14°C° 0 mm 2 m/s 752 mmHg 74%
03:00 +14°C° 0 mm 2 m/s 752 mmHg 74%
04:00 +15°C° 0 mm 2 m/s 752 mmHg 78%
05:00 +14°C° 0 mm 3 m/s 752 mmHg 81%
06:00 +14°C° 0 mm 3 m/s 752 mmHg 84%
07:00 +18°C° 0 mm 3 m/s 752 mmHg 80%
08:00 +20°C° 0 mm 4 m/s 751 mmHg 75%
09:00 +22°C° 0 mm 4 m/s 751 mmHg 71%
10:00 +23°C° 0 mm 4 m/s 751 mmHg 66%
11:00 +25°C° 0 mm 5 m/s 751 mmHg 61%
12:00 +26°C° 0 mm 5 m/s 751 mmHg 56%
13:00 +27°C° 0 mm 5 m/s 751 mmHg 57%
14:00 +27°C° 0 mm 5 m/s 750 mmHg 58%
15:00 +27°C° 0 mm 5 m/s 750 mmHg 58%
16:00 +27°C° 0 mm 4 m/s 750 mmHg 63%
17:00 +26°C° 0 mm 4 m/s 750 mmHg 68%
18:00 +25°C° 0 mm 4 m/s 749 mmHg 72%
19:00 +22°C° 0 mm 4 m/s 749 mmHg 76%
20:00 +21°C° 0 mm 3 m/s 749 mmHg 80%
21:00 +19°C° 0 mm 3 m/s 749 mmHg 83%
22:00 +19°C° 0 mm 3 m/s 749 mmHg 83%
23:00 +18°C° 0 mm 3 m/s 749 mmHg 83%

Après-demain, 15 Mai, Samedi

Heure Température Précipitation Vent Pression Humidité
00:00 +18°C° 0 mm 4 m/s 748 mmHg 82%
01:00 +18°C° 0 mm 4 m/s 748 mmHg 76%
02:00 +17°C° 0 mm 4 m/s 748 mmHg 69%
03:00 +16°C° 0 mm 5 m/s 748 mmHg 62%
04:00 +16°C° 0.2 mm 5 m/s 748 mmHg 65%
05:00 +15°C° 0.2 mm 5 m/s 749 mmHg 69%
06:00 +15°C° 0.2 mm 5 m/s 749 mmHg 72%
07:00 +17°C° 0 mm 6 m/s 749 mmHg 68%
08:00 +19°C° 0 mm 6 m/s 749 mmHg 64%
09:00 +21°C° 0 mm 7 m/s 749 mmHg 60%
10:00 +22°C° 0 mm 7 m/s 749 mmHg 56%
11:00 +23°C° 0 mm 7 m/s 749 mmHg 52%
12:00 +26°C° 0 mm 7 m/s 750 mmHg 48%
13:00 +26°C° 0 mm 6 m/s 749 mmHg 50%
14:00 +26°C° 0 mm 6 m/s 749 mmHg 51%
15:00 +27°C° 0 mm 6 m/s 749 mmHg 52%
16:00 +26°C° 0 mm 5 m/s 749 mmHg 56%
17:00 +26°C° 0 mm 4 m/s 749 mmHg 61%
18:00 +25°C° 0 mm 3 m/s 749 mmHg 65%
19:00 +22°C° 0 mm 3 m/s 749 mmHg 68%
20:00 +21°C° 0 mm 2 m/s 749 mmHg 70%
21:00 +19°C° 0 mm 2 m/s 749 mmHg 73%
22:00 +18°C° 0.2 mm 2 m/s 749 mmHg 76%
23:00 +19°C° 0.2 mm 1 m/s 749 mmHg 79%

16 Mai, Dimanche

Heure Température Précipitation Vent Pression Humidité
00:00 +19°C° 0.2 mm 1 m/s 749 mmHg 81%
01:00 +18°C° 0.1 mm 1 m/s 749 mmHg 84%
02:00 +18°C° 0.1 mm 1 m/s 749 mmHg 87%
03:00 +18°C° 0.1 mm 1 m/s 749 mmHg 89%
04:00 +18°C° 0 mm 1 m/s 749 mmHg 88%
05:00 +19°C° 0 mm 1 m/s 750 mmHg 87%
06:00 +19°C° 0 mm 1 m/s 750 mmHg 86%
07:00 +19°C° 0 mm 2 m/s 750 mmHg 79%
08:00 +21°C° 0 mm 2 m/s 750 mmHg 73%
09:00 +23°C° 0 mm 2 m/s 750 mmHg 67%
10:00 +24°C° 0 mm 3 m/s 750 mmHg 61%
11:00 +25°C° 0 mm 4 m/s 750 mmHg 55%
12:00 +26°C° 0 mm 4 m/s 750 mmHg 49%
13:00 +27°C° 0 mm 4 m/s 750 mmHg 48%
14:00 +27°C° 0 mm 4 m/s 750 mmHg 47%
15:00 +28°C° 0 mm 4 m/s 750 mmHg 45%
16:00 +27°C° 0 mm 3 m/s 749 mmHg 51%
17:00 +27°C° 0 mm 2 m/s 749 mmHg 57%
18:00 +26°C° 0 mm 2 m/s 749 mmHg 62%
19:00 +24°C° 0 mm 2 m/s 749 mmHg 65%
20:00 +23°C° 0 mm 2 m/s 749 mmHg 68%
21:00 +20°C° 0 mm 2 m/s 749 mmHg 71%
22:00 +19°C° 0 mm 2 m/s 749 mmHg 72%
23:00 +19°C° 0 mm 3 m/s 749 mmHg 73%

17 Mai, Lundi

Heure Température Précipitation Vent Pression Humidité
00:00 +18°C° 0 mm 3 m/s 749 mmHg 74%
01:00 +18°C° 0 mm 3 m/s 749 mmHg 74%
02:00 +17°C° 0 mm 3 m/s 749 mmHg 75%
03:00 +17°C° 0 mm 3 m/s 749 mmHg 75%
04:00 +17°C° 0 mm 3 m/s 749 mmHg 72%
05:00 +18°C° 0 mm 3 m/s 749 mmHg 70%
06:00 +18°C° 0 mm 3 m/s 749 mmHg 67%
07:00 +20°C° 0 mm 3 m/s 749 mmHg 62%
08:00 +22°C° 0 mm 4 m/s 749 mmHg 57%
09:00 +25°C° 0 mm 5 m/s 750 mmHg 52%
10:00 +26°C° 0 mm 5 m/s 749 mmHg 49%
11:00 +27°C° 0 mm 5 m/s 749 mmHg 46%
12:00 +28°C° 0 mm 6 m/s 749 mmHg 43%
13:00 +28°C° 0 mm 6 m/s 749 mmHg 45%
14:00 +29°C° 0 mm 5 m/s 749 mmHg 47%
15:00 +29°C° 0 mm 5 m/s 749 mmHg 49%
16:00 +28°C° 0 mm 5 m/s 749 mmHg 54%
17:00 +27°C° 0 mm 4 m/s 749 mmHg 59%
18:00 +26°C° 0 mm 4 m/s 748 mmHg 64%
19:00 +23°C° 0 mm 4 m/s 749 mmHg 64%
20:00 +22°C° 0 mm 4 m/s 749 mmHg 65%
21:00 +20°C° 0 mm 4 m/s 749 mmHg 65%
22:00 +19°C° 0 mm 4 m/s 749 mmHg 65%
23:00 +19°C° 0 mm 4 m/s 748 mmHg 65%

18 Mai, Mardi

Heure Température Précipitation Vent Pression Humidité
00:00 +18°C° 0 mm 4 m/s 748 mmHg 65%
01:00 +17°C° 0 mm 4 m/s 748 mmHg 62%
02:00 +17°C° 0 mm 4 m/s 748 mmHg 60%
03:00 +15°C° 0 mm 4 m/s 748 mmHg 57%
04:00 +15°C° 0 mm 4 m/s 748 mmHg 61%
05:00 +15°C° 0 mm 4 m/s 748 mmHg 65%
06:00 +15°C° 0 mm 4 m/s 748 mmHg 69%
07:00 +18°C° 0 mm 4 m/s 748 mmHg 63%
08:00 +21°C° 0 mm 4 m/s 748 mmHg 58%
09:00 +23°C° 0 mm 4 m/s 749 mmHg 53%
10:00 +25°C° 0 mm 5 m/s 749 mmHg 49%
11:00 +27°C° 0 mm 5 m/s 749 mmHg 46%
12:00 +28°C° 0 mm 5 m/s 749 mmHg 43%
13:00 +29°C° 0 mm 5 m/s 749 mmHg 46%
14:00 +29°C° 0 mm 6 m/s 749 mmHg 49%
15:00 +29°C° 0 mm 6 m/s 748 mmHg 52%
16:00 +28°C° 0 mm 5 m/s 749 mmHg 56%
17:00 +27°C° 0 mm 4 m/s 749 mmHg 61%
18:00 +26°C° 0 mm 4 m/s 749 mmHg 65%
19:00 +24°C° 0 mm 3 m/s 750 mmHg 70%
20:00 +23°C° 0 mm 2 m/s 750 mmHg 76%
21:00 +20°C° 0 mm 2 m/s 750 mmHg 82%
22:00 +20°C° 0 mm 2 m/s 750 mmHg 83%
23:00 +20°C° 0 mm 2 m/s 751 mmHg 84%
Voir plus

Nous avons besoin de votre consentement

Meteoprog et ses fournisseurs de services peuvent stocker et accéder à des données personnelles telles que des cookies, des identifiants d'appareils ou d'autres technologies similaires sur votre appareil et traiter ces données pour personnaliser le contenu et les publicités, ainsi que pour fournir des fonctionnalités de médias sociaux et analyser le trafic.

  • Stocker et/ou accéder à des informations sur votre appareil

    Des cookies, des identifiants d'appareils ou d'autres informations peuvent être stockés ou accessibles sur votre appareil aux fins indiquées ci-dessus.

  • Annonces et contenus personnalisés, mesure des annonces et des contenus, connaissance de l'audience et développement de produits

    Les annonces et le contenu peuvent être personnalisés en fonction d'un profil. D'autres données peuvent être ajoutées pour mieux personnaliser les annonces et le contenu. Les performances des publicités et du contenu peuvent être mesurées. Il est possible d'obtenir des informations sur le public qui a vu les publicités et le contenu. Ces données peuvent être utilisées pour développer ou améliorer l'expérience de l'utilisateur, les systèmes et les logiciels.

En cliquant sur "J'accepte", vous autorisez l'utilisation de cookies, des identifiants d'appareils, des balises web ou d'autres technologies similaires. Vos paramètres peuvent être modifiés dans le navigateur de votre appareil.

Dans certains cas, des intérêts légitimes peuvent être invoqués plutôt qu'un consentement. Vous pouvez en savoir plus à ce sujet dans notre Politique de confidentialité et de cookies.